TIANLIAN 2-05

Last updated on Thu Oct 30 2025 00:02:52 GMT+0000 (Coordinated Universal Time)

1 63662U 25084A 25302.27753214 .00000127 00000+0 00000+0 0 9993 2 63662 5.0418 282.3978 0001003 8.7200 227.0968 1.00273359 2065
UTC large
Height (km)
Speed (km/s)
/
Latitude / Longitude
Inclination (degrees)
Orbital Period (minutes)
Azimuth
Elevation
Range (km)
Doppler Factor

Next 0 passes for location: London (51.5072 / 0.1276)

Sorry there are no passes over London.